Location: Carnetin
(48.9010°N, 2.7059°E)
Time: 05:10:42
(UTC+00:00)

USA 229 - Pass Details

Date: 01 June 2022
Orbit: 938 x 1274 km, 63.4° (Epoch: 24 May)

Event Time Altitude Azimuth Distance (km) Brightness Sun altitude
Rises 00:13:28 0° 314° (NW) 4,000 7.2 -18.8°
Reaches altitude 10° 00:16:25 10° 304° (NW) 3,086 6.4 -18.8°
Maximum altitude 00:22:45 31° 246° (WSW) 1,985 4.8 -18.6°
Enters shadow 00:25:32 25° 212° (SSW) 2,273 4.9 -18.6°
